{"data":{"norad_id":44078,"intl_designator":"2019-018A","name":"EMISAT","alt_names":[],"object_type":"PAYLOAD","status":"ACTIVE","operator":null,"country":"IND","launch_date":"2019-04-01","launch_site_code":"SRILR","launch_vehicle":null,"mission":null,"orbit_class":"UNKNOWN","rcs_meters":null,"size_class":null,"mass_kg":null,"dimensions":null,"purposes":[],"wikipedia_slug":null,"has_3d_model":false,"image_url":null,"decayed_at":null,"tle_current":{"epoch":"2026-05-25T04:53:04.003584Z","epoch_age_seconds":50711,"freshness":"FRESH","line1":"1 44078U 19018A   26145.20351856  .00000047  00000+0  26989-4 0  9998","line2":"2 44078  98.4656 204.1281 0017316 288.3801  71.5506 14.43674300376742","mean_motion":14.436743,"eccentricity":0.0017316,"inclination_deg":98.4656,"raan_deg":204.1281,"arg_perigee_deg":288.3801,"mean_anomaly_deg":71.5506,"bstar":2.6989e-5,"rev_number":37674,"period_min":99.745489685589,"perigee_km":734.04751008419,"apogee_km":758.72115235848,"semimajor_km":7124.5213312213,"source":"CELESTRAK","updated_at":"2026-05-25T13:37:55.938495Z"}}}